Location: Orange Harbor Mobile Home Park
(26.6923°N, 81.7937°W)
Time: 08:41:48
(UTC+00:00)

Cosmos 1900 - Pass Details

Date: 19 September 2020
Orbit: 678 x 743 km, 66.1° (Epoch: 30 October)

Event Time Altitude Azimuth Distance (km) Brightness Sun altitude
Rises 00:35:03 0° 335° (NNW) 3,180 8.2 -15.8°
Reaches altitude 10° 00:37:26 10° 335° (NNW) 2,254 7.4 -16.4°
Maximum altitude 00:42:36 87° 245° (WSW) 744 4.4 -17.5°
Enters shadow 00:46:57 14° 158° (SSE) 1,941 6.3 -18.5°
